User: anonymous   Login
Location: Sperry Observatory
(40.6664°N, 74.3236°W)
Time: 17:18:39
(UTC-05:00)
Language:

UOSAT-12 - Orbit

View from above orbital plane
View from above orbital plane
View from above satellite
View from above satellite

Ground track
Ground track

The orbit data is extracted from the following two-line orbital elements,

1 25693U 99021A   14354.72456081  .00001186  00000-0  17141-3 0  6963
2 25693 064.5571 047.9396 0049247 264.2224 234.1913 14.80220859845527
Epoch (UTC): 20 December 2014 17:23:22
Eccentricity: 0.0049247
inclination: 64.5571°
perigee height: 594 km
apogee height: 663 km
right ascension of ascending node: 47.9396°
argument of perigee: 264.2224°
revolutions per day: 14.80220859
mean anomaly at epoch: 234.1913°
orbit number at epoch: 84552

The dashed part of the orbit path shows where the satellite is in the earth's shadow,  

DLR